Regional Weather Roundup
Issued by NWS Goodland, KS

Home | Current Version | Previous Version | Text Only | Print | Product List | Glossary On
Versions: 1 2 3 4 5 6 7 8 9 10 11 12 13 14 15 16 17 18 19 20 21 22 23 24 25 26 27 28 29 30 31 32 33 34 35 36 37 38 39 40 41 42 43 44 45 46 47 48 49 50
000
ASUS43 KGLD 250808
RWRGLD

GOODLAND FORECAST AREA HOURLY WEATHER ROUNDUP
NATIONAL WEATHER SERVICE GOODLAND KS
200 AM MDT MON SEP 25 2017

...OFFICIAL OBSERVATIONS...

CITY           SKY/WX    TMP DP  RH WIND       PRES   REMARKS
GOODLAND KS    CLOUDY    52  52 100 N12       29.98F
HILL CITY KS   LGT RAIN  58  58 100 NW6       29.94R FOG
IMPERIAL NEB   LGT RAIN  50  47  89 N7        30.02S
MCCOOK NEB     CLOUDY    53  52  96 NW12      30.01R
AKRON CO       LGT RAIN  47  45  93 NE13      30.05F FOG
BURLINGTON CO  CLOUDY    51  50  96 N9        30.02R
LIMON CO         N/A    N/A N/A N/A MISG        N/A
$$

...UNOFFICIAL OBSERVATIONS...

CITY           SKY/WX    TMP DP  RH WIND       PRES   REMARKS
LENORA KS        N/A     56  32  40 MISG        N/A
NORTON KS      LGT RAIN  55  52  88 N8        29.93F
SHARON SPRINGS   N/A     53  52  97 N9G17       N/A
KIT CARSON CO    N/A     51  48  90 CALM        N/A
YUMA CO        CLOUDY    46  46 100 N10       30.04F FOG
$$




USA.gov is the U.S. government's official web portal to all federal, state and local government web resources and services.